AirNav   Everest Fuels
 
 1433 users online  

KEMT San Gabriel Valley Airport
El Monte, California, USA

GOING TO EL MONTE?


FAA INFORMATION EFFECTIVE 10 OCTOBER 2019

Location

FAA Identifier: EMT
Lat/Long: 34-05-09.6320N 118-02-05.4430W
34-05.160533N 118-02.090717W
34.0860089,-118.0348453
(estimated)
Elevation: 295.6 ft. / 90.1 m (surveyed)
Variation: 14E (1985)
From city: 1 mile N of EL MONTE, CA
Time zone: UTC -7 (UTC -8 during Standard Time)
Zip code: 91731

Airport Operations

Airport use: Open to the public
Activation date: 04/1944
Control tower: yes
ARTCC: LOS ANGELES CENTER
FSS: RIVERSIDE FLIGHT SERVICE STATION
NOTAMs facility: EMT (NOTAM-D service available)
Attendance: CONTINUOUS
Wind indicator: lighted
Segmented circle: yes
Lights: WHEN ATCT CLSD ACTVT MIRL RY 01/19, REIL RY 19, PAPI RYS 01 AND 19 - CTAF.
Beacon: white-green (lighted land airport)
Operates sunset to sunrise.
Taxiway lights: CNTR TWY LGTS ONLY.

Airport Communications

CTAF: 121.2
UNICOM: 122.95
ATIS: 118.75
WX AWOS-3PT: 118.75 ((626) 444-1107)
EL MONTE GROUND: 125.9 [0800-2000]
EL MONTE TOWER: 121.2 [0800-2000]
SOCAL APPROACH: 125.5
SOCAL DEPARTURE: 125.5
WX AWOS-3PT at POC (13 nm E): 124.4 (909-596-1523)
WX ASOS at FUL (13 nm S): PHONE 714-870-1372
WX AWOS-3PT at CPM (16 nm SW): 127.150 (310-631-4958)
WX ASOS at LGB (17 nm S): PHONE 562-424-0572
WX AWOS-3P at CCB (17 nm E): 119.525 (909-985-4731)
WX ASOS at BUR (17 nm NW): PHONE 818-841-1384
WX ASOS at HHR (18 nm SW): PHONE 310-973-8930
  • DRG HRS EL MONTE TWR IS OPNL SOCAL APP PRVDS DEP CTL SVC ON 125.5; OTR HRS DEP CTL ON 121.2.

Nearby radio navigation aids

VOR radial/distance  VOR name  Freq  Var
POMr257/12.3POMONA VORTAC110.4015E
SLIr348/18.2SEAL BEACH VORTAC115.7015E
SMOr063/21.5SANTA MONICA VOR/DME110.8015E
LAXr050/21.8LOS ANGELES VORTAC113.6015E
VNYr095/24.1VAN NUYS VOR/DME113.1015E
PDZr277/27.1PARADISE VORTAC112.2015E
ELBr314/28.9EL TORO VOR/DME117.2014E
RALr271/(30.1)RIVERSIDE VOR112.4014E
PMDr162/32.8PALMDALE VORTAC114.5015E

Airport Services

Fuel available: 100LL JET-A
Parking: tiedowns
Airframe service: MAJOR
Powerplant service: MAJOR
Bulk oxygen: NONE

Runway Information

Runway 1/19

Dimensions: 3995 x 75 ft. / 1218 x 23 m
Surface: asphalt/aggregate friction seal coat, in good condition
Weight bearing capacity: 
Single wheel: 12.5
Runway edge lights: medium intensity
RUNWAY 1  RUNWAY 19
Latitude: 34-04.862517N34-05.457367N
Longitude: 118-02.260400W118-01.920483W
Elevation: 281.8 ft.295.6 ft.
Traffic pattern: leftright
Runway heading: 011 magnetic, 025 true191 magnetic, 205 true
Displaced threshold: 290 ft.641 ft.
Declared distances: TORA:3504 TODA:3995 ASDA:3755 LDA:3465TORA:3995 TODA:3995 ASDA:3995 LDA:3354
Markings: basic, in good conditionbasic, in good condition
Visual slope indicator: 2-light PAPI on left (4.57 degrees glide path)2-light PAPI on right (4.50 degrees glide path)
Runway end identifier lights: noyes
Touchdown point: yes, no lightsyes, no lights
Obstructions: 18 ft. pole, 350 ft. from runway, 85 ft. right of centerline, 8:1 slope to clear
RWY 01 +6 FT FENCE 120 FT R OF CNTRLN; +6 FT FENCE 120 FT LEFT & PARALLEL TO CNTRLN 0-200 FT FM END OF RY.
30 ft. pole, 800 ft. from runway, 205 ft. left of centerline, 20:1 slope to clear
+2 FT FENCE 75 FT RIGHT OF CNTRLN AT THR TO 0 FT RIGHT OF CNTRLN AT 200 FT.

Airport Ownership and Management from official FAA records

Ownership: Publicly-owned
Owner: CO OF LOS ANGELES
P O BOX 1460
ALHAMBRA, CA 91803-1331
Phone (626) 300-4602
LA COUNTY CTC: RICHARD SMITH (626) 300-4600 X4615. AIRPORT MGT CONTRACTED TO - AMERICAN AIRPORTS CORP.
Manager: ENRIQUE CURIOSO
4233 NORTH SANTA ANITA AVE
EL MONTE, CA 91731
Phone 626-448-6129

Airport Operational Statistics

Aircraft based on the field: 124
Single engine airplanes: 112
Multi engine airplanes: 5
Helicopters: 5
Gliders airplanes: 2
    
Aircraft operations: avg 245/day *
58% local general aviation
42% transient general aviation
<1% air taxi
<1% military
* for 12-month period ending 31 December 2018

Additional Remarks

REMAIN OVER PAVED CHANNEL ON CLIMB OUT TO SOUTH AND TO NORTH.
HEAVY BIRD ACTIVITY ON & INVOF ARPT.
LGTD WATER TWR 1 MI W-SW OF ARPT.
NOISE ABATEMENT PROCEDURES IN EFFECT, CTC ARPT MANAGER FOR DETAILS.
FOR CLNC DEL WHEN ATCT CLSD CALL SOCAL APP (800) 448-3724.

Instrument Procedures

NOTE: All procedures below are presented as PDF files. If you need a reader for these files, you should download the free Adobe Reader.

NOT FOR NAVIGATION. Please procure official charts for flight.
FAA instrument procedures published for use from 10 October 2019 at 0901Z to 17 November 2019 at 0900Z.

 
STARs - Standard Terminal Arrivals
SETER FIVE   download (264KB)
ZIGGY SEVEN   2 pages: [1] [2] (418KB)
 
IAPs - Instrument Approach Procedures
VOR OR GPS-B   download (310KB)
VOR-A   download (293KB)
NOTE: Special Alternate Minimums apply   download (36KB)
NOTE: Special Take-Off Minimums/Departure Procedures apply   download (236KB)

Other nearby airports with instrument procedures:

KPOC - Brackett Field Airport (13 nm E)
KFUL - Fullerton Municipal Airport (13 nm S)
KLGB - Long Beach Airport (Daugherty Field) (17 nm S)
KCCB - Cable Airport (17 nm E)
KBUR - Bob Hope Airport (17 nm NW)
KSLI - Los Alamitos Army Airfield (18 nm S)
KHHR - Jack Northrop Field/Hawthorne Municipal Airport (18 nm SW)
 
Loc | Ops | Rwys | IFR | FBO | Links
Com | Nav | Svcs | Stats | Notes

San Bernardino International Airport Authority
 
Area around KEMT (San Gabriel Valley Airport)
 
Road maps at: MapQuest Bing Google
 
Aerial photo
WARNING: Photo may not be current or correct
Aerial photo of KEMT (San Gabriel Valley Airport)
Photo by Mark Holtzman
West Coast Aerial Photography
Photo taken 01-May-2019
looking northwest.

Do you have a better or more recent aerial photo of San Gabriel Valley Airport that you would like to share? If so, please send us your photo.

 
Sectional chart

 
Airport diagram
CAUTION: Diagram may not be current
Diagram of KEMT (San Gabriel Valley Airport)
Download PDF
of official airport diagram from the FAA

 
Airport distance calculator
Flying to San Gabriel Valley Airport? Find the distance to fly.

From to KEMT

Sunrise and sunset
Times for 18-Oct-2019
 Local
(UTC-7)
 Zulu
(UTC)
Morning civil twilight06:3613:36
Sunrise07:0114:01
Sunset18:1401:14
Evening civil twilight18:3901:39

Current date and time
Zulu (UTC)  18-Oct-2019 18:30:05
Local (UTC-7)  18-Oct-2019 11:30:05
 
METAR
KEMT 181645Z 00000KT 10SM SCT022 18/12 A2997
KCQT 
10nm W 
181752Z AUTO 13003KT 10SM CLR 22/12 A2995 RMK AO2 SLP139 T02220117 10222 20167 51017
KPOC 
13nm E 
181747Z 24004KT 10SM CLR 19/12 A2998
KFUL 
13nm S 
181753Z 18004KT 10SM CLR 22/12 A2995 RMK AO2 SLP141 T02170122 10217 20144 50017
KLGB 
17nm S 
181753Z 00000KT 10SM SCT017 22/12 A2996 RMK AO2 SLP144 T02170122 10222 20156 51018
KCCB 
17nm E 
119.525 909-985-4731
181815Z AUTO 26008KT 10SM CLR 20/09 A2996 RMK AO2
KBUR 
18nm NW 
181753Z 11006KT 10SM CLR 20/08 A2996 RMK AO2 SLP133 T02000078 10200 20139 51017 $
KHHR 
18nm SW 
181753Z 00000KT 10SM CLR 22/08 A2996 RMK AO2 SLP145 T02220083 10228 20161 51018 $
KSLI 
19nm S 
181758Z 00000KT 8SM FEW025 21/12 A2995 RMK AO2A SLP145 T02110120 10212 20123 50017
KLAX 
20nm SW 
181753Z 36005KT 10SM FEW010 23/08 A2996 RMK AO2 SLP144 T02330078 10233 20156 51019
TAF
KLGB 
17nm S 
181729Z 1818/1918 VRB03KT P6SM SCT017 FM182100 27008KT P6SM SKC FM190400 VRB03KT P6SM SKC FM191200 07005KT P6SM SCT015
KBUR 
18nm NW 
181729Z 1818/1918 14008KT P6SM SKC FM182000 17009KT P6SM SKC FM190300 VRB03KT P6SM SKC FM191600 12006KT P6SM SKC
KSLI 
19nm S 
181356Z 1813/1919 VRB06KT 9999 SCT015 QNH2984INS TEMPO 1813/1816 BKN015 BECMG 1817/1818 VRB06KT 9999 SKC QNH2984INS TX24/1823Z TN14/1913Z
KLAX 
20nm SW 
181729Z 1818/1924 07006KT P6SM FEW010 FM182100 26012KT P6SM SKC FM190300 25006KT P6SM SKC FM191100 08005KT P6SM FEW015 FM192000 26010KT P6SM SKC
KSMO 
21nm W 
181729Z 1818/1918 10005KT P6SM SKC FM182000 25008KT P6SM SKC FM190300 VRB03KT P6SM SKC FM191200 08005KT P6SM SKC
NOTAMs
Click for the latest NOTAMs
NOTAMs are issued by the DoD/FAA and will open in a separate window not controlled by AirNav.

 

 
 

FBO, Fuel Providers, and Aircraft Ground Support

  
 Business Name 
 
 Contact 
 
 Services / Description 
 
Fuel Prices
 
Comments
  
 American Airports Corp.
626-448-6129
[web site]
[email]
Airport management, Aviation fuel, Aircraft parking (ramp or tiedown), Hangars, Passenger terminal and lounge, Pilots lounge / snooze room, Computerized weather, ...

More info about American Airports Corp.
Avfuel
100LL Jet A
FS $5.49 $4.09 
SS $5.29 --- 
 Updated 11-Oct-2019
 
   write
Billion Air Aviation, Inc. 626-208-3708
toll-free 1-888-818-8177
[web site]
[email]
Aviation fuel, Aircraft ground handling, Aircraft parking (ramp or tiedown), Hangars, Hangar leasing / sales, Passenger terminal and lounge, ...

More info about Billion Air Aviation, Inc.
Phillips 66
100LL Jet A
FS $5.45 $4.09 
 Updated 01-Oct-2019
 
   6 read write
FS=Full service
SS=Self service
Update Fuel Prices
 

Would you like to see your business listed on this page?

 If your business provides an interesting product or service to pilots, flight crews, aircraft, or users of the San Gabriel Valley Airport, you should consider listing it here.  To start the listing process, click on the button below
 
Add a business
 

Other Pages about San Gabriel Valley Airport

aacit.caltech.edu/...
 
Update a link
 
Copyright © AirNav, LLC. All rights reserved. Privacy Policy  Contact